Hourly Data Report for October 05, 2013

All times are specified in Local Standard Time (LST). Add 1 hour to adjust for Daylight Saving Time where and when it is observed.

PENTICTON A
BRITISH COLUMBIA

49°27'45.000" N
119°36'08.000" W
344.40 m
1126146
71889
YYF

Download Data

Hourly Data (October 2013)
Hourly Data Report for October 5, 2013
Temp Definition
°C
Dew Point Temp Definition
°C
Rel Hum Definition
%
Wind Dir Definition
10's deg

Wind Spd Definition
km/h
Visibility Definition
km
Stn Press Definition
kPa
Hmdx Definition


Wind Chill Definition


Weather Definition


TIME
00:00 Legend Double Dagger 13.2 3.6 52 16 20 24.1 98.62     LegendNANA
01:00 Legend Double Dagger 13.0 2.6 49 14 20 24.1 98.67     Cloudy
02:00 Legend Double Dagger 12.5 3.5 54 15 21 24.1 98.63     LegendNANA
03:00 Legend Double Dagger 12.2 3.5 55 16 18 24.1 98.60     LegendNANA
04:00 Legend Double Dagger 11.6 2.7 54 14 12 24.1 98.62     Cloudy
05:00 Legend Double Dagger 11.4 3.2 57 15 23 24.1 98.63     LegendNANA
06:00 Legend Double Dagger 11.7 3.0 55 15 22 24.1 98.65     LegendNANA
07:00 Legend Double Dagger 10.9 3.5 60 17 24 24.1 98.60     Mostly Cloudy
08:00 Legend Double Dagger 11.5 2.8 55 17 32 24.1 98.63     LegendNANA
09:00 Legend Double Dagger 11.6 2.9 55 18 28 24.1 98.67     LegendNANA
10:00 Legend Double Dagger 11.5 3.3 57 16 25 24.1 98.65     Cloudy
11:00 Legend Double Dagger 12.0 3.6 56 17 26 24.1 98.66     LegendNANA
12:00 Legend Double Dagger 11.9 3.5 56 15 24 24.1 98.64     LegendNANA
13:00 Legend Double Dagger 12.3 3.6 55 15 26 24.1 98.58     Cloudy
14:00 Legend Double Dagger 12.7 3.7 54 17 25 24.1 98.54     LegendNANA
15:00 Legend Double Dagger 12.5 4.3 57 15 18 24.1 98.50     LegendNANA
16:00 Legend Double Dagger 12.7 3.7 54 14 12 24.1 98.44     Cloudy
17:00 Legend Double Dagger 12.6 4.9 59 16 8 24.1 98.41     LegendNANA
18:00 Legend Double Dagger 12.1 4.6 60 18 5 24.1 98.39     LegendNANA
19:00 Legend Double Dagger 11.9 5.1 63 13 6 24.1 98.36     Cloudy
20:00 Legend Double Dagger 10.2 5.0 70 3 3 24.1 98.33     LegendNANA
21:00 Legend Double Dagger 10.9 5.5 69 16 3 24.1 98.32     LegendNANA
22:00 Legend Double Dagger 8.0 5.0 81 2 7 24.1 98.31     Mostly Cloudy
23:00 Legend Double Dagger 7.2 4.9 85 36 4 24.1 98.33     LegendNANA

Notes on Data Quality.

Legend

  • E = Estimated
  • M = Missing
  • NA = Not Available
  • ‡ = Partner data that is not subject to review by the National Climate Archives
Date modified: